Regional Weather Roundup
Issued by NWS Newport/Morehead, NC

Current Version | Previous Version | Graphics & Text | Print | Product List | Glossary Off
Versions: 1 2 3 4 5 6 7 8 9 10 11 12 13 14 15 16 17 18 19 20 21 22 23 24 25 26 27 28 29 30 31 32 33 34 35 36 37 38 39 40 41 42 43 44 45 46 47 48 49 50

000
ASUS42 KMHX 261213
RWRMHX
WEATHER ROUNDUP FOR EASTERN NORTH CAROLINA
NATIONAL WEATHER SERVICE NEWPORT/MOREHEAD CITY NC
800 AM EDT SUN MAR 26 2017

NOTE: "FAIR" INDICATES FEW OR NO CLOUDS BELOW 12,000 FEET
WITH NO SIGNIFICANT WEATHER AND/OR OBSTRUCTIONS TO VISIBILITY

NCZ015>017-031-032-045>047-102-103-261300-
NORTH COAST

CITY           SKY/WX    TMP DP  RH WIND       PRES   REMARKS
EDENTON        PTSUNNY   54  51  92 CALM      30.27R
ELIZABETH CITY CLOUDY    54  53  97 SE3       30.27R
KITTY HAWK     NOT AVBL
MANTEO         CLOUDY    57  56  96 CALM      30.28R

$$

NCZ045>047-081-094-103-104-261300-
CENTRAL COAST

CITY           SKY/WX    TMP DP  RH WIND       PRES   REMARKS
FRISCO         CLOUDY    65  55  70 VRB3      30.28R HAZE

$$

NCZ095-097-098-100-101-261300-
SOUTHERN COAST

CITY           SKY/WX    TMP DP  RH WIND       PRES   REMARKS
BEAUFORT       CLOUDY    61  58  90 CALM      30.26R
CEDAR ISLAND   NOT AVBL
JACKSONVILLE   PTSUNNY   53  53 100 CALM      30.25R
PINEY ISLAND   MOSUNNY  N/A N/A N/A CALM      30.27R
WILMINGTON     MOSUNNY   54  54 100 CALM      30.24R


$$

NCZ011>013-027>030-043-044-078>080-089-090>093-098-261300-
COASTAL PLAIN

CITY           SKY/WX    TMP DP  RH WIND       PRES   REMARKS
AHOSKIE          N/A     51  51  98 CALM      30.26R
CLINTON        PTCLDY    56  56 100 CALM      30.24S
ELIZABETHTOWN  PTCLDY    53  53 100 CALM      30.23R
GOLDSBORO      MOSUNNY   53  53 100 E5        30.23R
GREENVILLE     CLOUDY    54  54 100 CALM      30.27R
HAVELOCK       NOT AVBL
KENANSVILLE    CLOUDY    54  54 100 CALM      30.25R
KINSTON        MOSUNNY   50  50 100 CALM      30.27R
NEW BERN       SUNNY     49  49 100 CALM      30.27R
RICHLANDS      PTSUNNY   52  52 100 CALM      30.26R
ROCKY MOUNT    CLOUDY    53  53 100 CALM      30.25R
WASHINGTON     CLOUDY    53  52  97 CALM      30.27R
WHITEVILLE     CLOUDY    54  52  95 CALM      30.22R

$$

AMZ130-135-150-152-154-156-158-170-250-252-270-ANZ085-086-088-633-658-670-261300-
MARINE OBSERVATIONS

STATION/POSITION TIME  TEMP    WIND        PRES    WAVE   SWELL
                       AIR SEA DIR/SP/G            HT/PER HT/PER
                 (UTC) (F)     (DEG/KT/KT) (MB)    (FT/S) (FT/S)
CHESAPEAKE LIGHT NOT AVBL
64 E VA BEACH    1150   54 49  240/  4/  4 1025.1    2/ 5   2/ 5
DUCK             1148   57 46  270/  2/  2 1024.6
2 E DUCK         1200      49                N/A     2/ 8
OREGON INLET     1142   56 58  120/  4/  5 1025.2
13E OREGON INLT  1148      50                N/A     2/ 6   2/ 6
HATTERAS CG      1148   62 58     CALM     1025.0
DIAMOND BUOY     1150   68 75  180/ 14/ 16 1025.3    3/ 9   2/ 9
CAPE LOOKOUT     1200   66      30/  3/  3 1024.6
BEAUFORT LAB     1148   60 55   40/  2/  2 1023.8
30 SE NEW RVR IN 1108   66     150/  4/  6 1024.1
30 SE NEW RVR IN 1143      65                N/A     3/ 8
27 SE WRIGHTSVLE 1108   66 64  160/  4/  8 1022.7
5 SE WRIGHTSVLE  1108   62 58  150/  8/ 10 1023.2
225 S CAPE HAT   1150   67 72   80/  6/ 12 1024.6    5/ 9   5/ 9
41 SE CHARLESTON 1150   71 73  160/ 10/ 14 1022.0    5/ 9   3/ 9

$$




USA.gov is the U.S. government's official web portal to all federal, state and local government web resources and services.